Portada
METAR-TAF:

METAR-TAF

Aeropuertos :

Qeshm, Irán

latitud: 26-45-18N, longitud: 055-54-08E, altitud: 12 m

Observación

El informe se hizo hace 10 minutos, a las 05:00 UTC
Viento 10 kt del oeste-suroeste
Temperatura 23°C
Humedad 89%
Presión 1014 hPa
Visibilidad: 6000 m
Escasas nubes a una altura de 3000 ft

METAR: OIKQ 090500Z 24010KT 6000 FEW030 23/21 Q1014 NOSIG

Hora: 08:40 (05:10 UTC)


TAF: falta

Observaciones y pronósticos meteorológicos de más de 4000 aeropuertos (mensajes METAR y TAF).

Los puntos amarillos y rojos representan las estaciones disponibles.

Ponga el ratón en el punto deseado para ver el nombre de la estación.

Haga clic para ver las observaciones y los pronósticos meteorológicos.

Para cambiar el mapa : haga clic en los botones verdes con una cruz de color negro para hacer un zoom, en el botón verde con un guión para alejar o en las flechas verdes para mapas adyacentes.


METAR-TAF: